Regional Weather Roundup
Issued by NWS

Home | Current Version | Previous Version | Graphics & Text | Print | Product List | Glossary On
Versions: 1 2 3 4 5 6 7 8 9 10 11 12 13 14 15 16 17 18 19 20 21 22 23 24 25 26 27 28 29 30 31 32 33 34 35 36 37 38 39 40 41 42 43 44 45 46 47 48 49 50
000
ASUS43 KIND 241759
RWRIN

WEATHER ROUNDUP FOR INDIANA
NATIONAL WEATHER SERVICE INDIANAPOLIS IN
200 PM EDT FRI MAR 24 2017

NOTE: "FAIR" INDICATES FEW OR NO CLOUDS BELOW 12,000 FEET WITH NO
SIGNIFICANT WEATHER AND/OR OBSTRUCTIONS TO VISIBILITY.

* - STATION DOES NOT REPORT WEATHER SUCH AS PRECIPITATION OR FOG.

+ - STATION NOT QUALITY CONTROLLED BY THE NATIONAL WEATHER SERVICE.
    USE DATA WITH CAUTION...ESPECIALLY DEWPOINT AND RELATIVE
    HUMIDITY OBSERVATIONS.

INZ001>003-010>013-019-020-241900-
NORTHWEST INDIANA

CITY           SKY/WX    TMP DP  RH WIND       PRES   REMARKS
GARY /AIRPORT/ MOSUNNY   77  41  27 S17G33    29.93F
MONTICELLO +   SUNNY     73  55  51 SW22G31   30.01F
6HR MIN TEMP:  53; 6HR MAX TEMP:  74;


$$

LMZ046-743>745-241900-
SOUTHERN LAKE MICHIGAN

STATION/POSITION TIME  TEMP    WIND        PRES    WAVE
                       AIR SEA DIR/SP/G            HT
                 (UTC) (F)     (DEG/KT/KT) (MB)    (FT)
BURNS HARBOR     1740   71     210/ 20/ 28 1013.9F
MICHIGAN CITY    1730   69     210/ 20/ 24   N/A

$$

INZ004-005-014>016-021>024-241900-
NORTH CENTRAL INDIANA

CITY           SKY/WX    TMP DP  RH WIND       PRES   REMARKS
ELKHART        SUNNY     75  50  41 SW20      29.96F
GOSHEN         SUNNY     74  50  42 SW23G32   29.98F
6HR MIN TEMP:  51; 6HR MAX TEMP:  74;

SOUTH BEND     SUNNY     74  51  44 SW20G30   29.96F
6HR MIN TEMP:  49; 6HR MAX TEMP:  74;


$$

INZ006>009-017-018-025>027-241900-
NORTHEAST INDIANA

CITY           SKY/WX    TMP DP  RH WIND       PRES   REMARKS
ANGOLA *+      SUNNY     72  64  78 SW15      29.98F
FORT WAYNE     PTSUNNY   72  56  57 SW24G31   30.03F
6HR MIN TEMP:  51; 6HR MAX TEMP:  72;

KENDALLVILLE + SUNNY     71  53  51 SW22G35   30.00F

$$

INZ028-029-035-036-043>045-051>053-241900-
WEST CENTRAL INDIANA

CITY           SKY/WX    TMP DP  RH WIND       PRES   REMARKS
CRAWFORDSVL +  PTSUNNY   70  56  61 SW22G31   30.08S
6HR MIN TEMP:  55; 6HR MAX TEMP:  71;

GREENCASTLE +  MOSUNNY   70  54  56 SW18G29   30.10F
LAFAYETTE      MOSUNNY   73  56  54 SW18G30   30.03F
6HR MIN TEMP:  56; 6HR MAX TEMP:  73;

TERRE HAUTE    CLOUDY    70  56  61 S22       30.09F
6HR MIN TEMP:  57; 6HR MAX TEMP:  72;


$$

INZ030>032-037>040-046>048-054>057-064-065-241900-
CENTRAL INDIANA

CITY           SKY/WX    TMP DP  RH WIND       PRES   REMARKS
ANDERSON       MOSUNNY   72  55  56 S17G29    30.09F
COLUMBUS       MOSUNNY   73  55  53 SW20G29   30.14F
INDIANAPOLIS   MOSUNNY   75  55  49 SW28G35   30.10F
6HR MIN TEMP:  53; 6HR MAX TEMP:  75;

-EAGLE CREEK   MOSUNNY   73  55  53 SW15G31   30.08F
6HR MIN TEMP:  54; 6HR MAX TEMP:  74;

KOKOMO +       SUNNY     72  57  59 SW26G32   30.06F
6HR MIN TEMP:  48; 6HR MAX TEMP:  72;

SHELBYVILLE    MOSUNNY   76  55  48 SW25      30.11F
6HR MIN TEMP:  54; 6HR MAX TEMP:  76;


$$

INZ033-034-041-042-049-050-058-059-241900-
EAST CENTRAL INDIANA

CITY           SKY/WX    TMP DP  RH WIND       PRES   REMARKS
MUNCIE         SUNNY     72  55  55 SW14G28   30.08F
6HR MIN TEMP:  55; 6HR MAX TEMP:  72;

RICHMOND +     SUNNY     68  52  56 SW20G28   30.15F

$$

INZ060-061-067>069-081>083-085>088-241900-
SOUTHWEST INDIANA

CITY           SKY/WX    TMP DP  RH WIND       PRES   REMARKS
EVANSVILLE     CLOUDY    74  56  53 SW23G30   30.16F
6HR MIN TEMP:  58; 6HR MAX TEMP:  74;

HUNTINGBURG *+ CLOUDY    71  56  58 S18G26    30.17S
6HR MIN TEMP:  58; 6HR MAX TEMP:  73;


$$

INZ062-063-066-070>080-084-089>092-241900-
SOUTH CENTRAL AND SOUTHEAST INDIANA

CITY           SKY/WX    TMP DP  RH WIND       PRES   REMARKS
BLOOMINGTON    CLOUDY    71  54  54 SW16G26   30.14F
6HR MIN TEMP:  59; 6HR MAX TEMP:  72;

MADISON *+     PTSUNNY   72  50  46 S18G24    30.19F
SEYMOUR +      PTSUNNY   75  54  46 SW18      30.14F

$$




USA.gov is the U.S. government's official web portal to all federal, state and local government web resources and services.